TimePST,TemperatureF,Dew PointF,Humidity,Sea Level PressureIn,VisibilityMPH,Wind Direction,Wind SpeedMPH,Gust SpeedMPH,PrecipitationIn,Events,Conditions,WindDirDegrees,DateUTC
12:56 AM,39.9,28.9,65,29.95,10.0,West,15.0,20.7,N/A,,Clear,260,2012-11-10 08:56:00
1:56 AM,39.9,28.9,65,29.96,10.0,WSW,17.3,-,N/A,,Clear,250,2012-11-10 09:56:00
2:56 AM,39.0,28.0,65,29.96,10.0,WSW,12.7,-,N/A,,Clear,240,2012-11-10 10:56:00
3:56 AM,39.0,28.0,65,29.98,10.0,SW,10.4,-,N/A,,Clear,230,2012-11-10 11:56:00
4:56 AM,37.9,28.0,68,30.00,10.0,West,12.7,-,N/A,,Clear,280,2012-11-10 12:56:00
5:56 AM,39.0,28.0,65,30.01,10.0,WSW,10.4,-,N/A,,Clear,240,2012-11-10 13:56:00
6:56 AM,39.0,28.0,65,30.04,10.0,West,13.8,-,N/A,,Clear,260,2012-11-10 14:56:00
7:56 AM,44.1,28.9,55,30.06,10.0,West,17.3,-,N/A,,Clear,270,2012-11-10 15:56:00
8:56 AM,46.0,28.0,50,30.08,10.0,West,24.2,-,N/A,,Clear,280,2012-11-10 16:56:00
9:56 AM,48.0,26.1,42,30.09,10.0,WNW,24.2,28.8,N/A,,Clear,290,2012-11-10 17:56:00
10:56 AM,50.0,25.0,38,30.10,10.0,WNW,20.7,28.8,N/A,,Partly Cloudy,290,2012-11-10 18:56:00
11:56 AM,50.0,21.0,32,30.08,10.0,WNW,20.7,28.8,N/A,,Clear,300,2012-11-10 19:56:00
12:56 PM,51.1,21.0,31,30.06,10.0,WNW,21.9,29.9,N/A,,Clear,300,2012-11-10 20:56:00
1:56 PM,51.1,21.9,32,30.05,10.0,NW,23.0,29.9,N/A,,Partly Cloudy,310,2012-11-10 21:56:00
2:56 PM,50.0,21.9,33,30.04,10.0,WNW,24.2,32.2,N/A,,Clear,300,2012-11-10 22:56:00
3:56 PM,48.0,19.9,33,30.06,10.0,WNW,24.2,29.9,N/A,,Scattered Clouds,300,2012-11-10 23:56:00
4:56 PM,46.0,21.9,39,30.07,10.0,WNW,18.4,26.5,N/A,,Scattered Clouds,300,2012-11-11 00:56:00
5:56 PM,46.0,21.9,39,30.10,10.0,WNW,17.3,27.6,N/A,,Scattered Clouds,290,2012-11-11 01:56:00
6:56 PM,45.0,21.9,40,30.13,10.0,West,15.0,24.2,N/A,,Clear,260,2012-11-11 02:56:00
7:56 PM,43.0,21.0,42,30.13,10.0,West,12.7,-,N/A,,Clear,280,2012-11-11 03:56:00
8:56 PM,43.0,19.0,38,30.15,10.0,West,12.7,-,N/A,,Clear,280,2012-11-11 04:56:00
9:56 PM,43.0,18.0,37,30.15,10.0,WNW,17.3,25.3,N/A,,Clear,290,2012-11-11 05:56:00
10:56 PM,43.0,19.0,38,30.17,10.0,West,15.0,-,N/A,,Clear,280,2012-11-11 06:56:00
11:56 PM,41.0,19.0,41,30.19,10.0,West,12.7,-,N/A,,Clear,270,2012-11-11 07:56:00